Theta_e
324 318 315 315 311 312 306 302 297 294 291 289 286 290 294 298 297 299 300 300 302 306 308 312 310 310 308 305 306 307 310 307 305 298 297 306 324 337 337 339 341 342 342 343 344 343 342 345 347 346 346 345 344 343 342 342 342 341 341 340 340 342 344 343 344 344 344 344 345 347 345 343 341 339 338 338 338 338 339 338 339 339 339 339 339 339 339 338 338 338 338 338 338 338 338 338 337
319 318 313 315 314 309 303 297 291 286 288 287 289 290 292 296 298 296 298 299 302 310 311 315 316 316 315 314 314 312 308 314 309 313 315 326 337 337 339 340 342 341 343 344 344 342 340 341 346 346 346 345 344 342 343 342 340 338 339 339 339 339 341 343 342 342 341 342 342 344 346 344 341 339 339 339 337 337 336 337 339 339 338 336 336 338 338 338 338 338 338 337 337 338 338 338 337
317 317 314 309 308 304 300 297 295 283 286 286 286 290 295 297 296 298 297 301 306 312 312 313 313 312 312 312 309 307 304 316 316 321 326 333 330 334 339 341 342 342 343 344 343 343 340 341 345 346 345 344 343 342 342 341 340 340 340 340 339 339 340 341 341 342 342 343 343 343 343 342 342 340 340 340 339 339 341 341 341 341 340 339 339 338 338 337 337 338 338 337 338 338 338 338 338
319 318 313 306 305 301 293 290 288 285 287 283 285 291 295 296 297 298 300 302 309 309 306 310 312 314 311 308 310 314 311 313 317 324 325 329 330 337 340 341 343 343 344 344 344 342 340 343 345 347 345 344 342 342 342 340 340 340 340 340 340 341 342 342 342 341 342 343 342 341 340 340 340 341 342 343 342 343 341 338 337 337 338 338 338 338 338 339 338 338 337 337 337 339 338 337 336
317 320 310 304 303 302 292 289 287 285 286 285 289 290 294 297 301 300 306 306 304 305 305 308 310 315 314 312 313 309 309 316 319 325 325 328 336 340 340 341 342 342 342 343 343 341 340 343 344 346 345 344 343 343 342 341 341 341 341 341 341 341 341 341 341 341 342 342 341 339 340 341 342 344 345 345 342 340 339 337 337 336 336 337 337 336 338 338 338 337 336 337 338 338 337 336 335
314 312 314 309 303 302 296 292 290 289 288 290 293 297 295 299 303 301 304 303 303 304 305 308 309 310 312 314 315 311 314 311 318 318 325 328 339 341 341 341 341 341 342 343 341 339 340 342 344 345 346 344 343 343 342 342 342 343 343 342 341 341 340 340 341 342 342 341 340 339 342 342 343 344 344 344 342 340 339 338 339 338 337 337 336 336 336 337 336 337 337 337 337 337 337 336 335
313 307 306 305 303 300 293 288 286 286 290 293 296 297 300 301 303 302 303 303 304 309 306 311 310 310 309 311 315 317 320 322 319 320 327 332 340 341 341 341 341 340 341 342 340 339 340 342 345 346 346 345 343 342 343 343 342 342 341 341 341 340 340 340 340 340 340 339 339 339 342 341 341 342 343 343 343 341 340 338 337 336 337 338 338 338 337 337 337 337 336 336 336 337 336 336 336
316 307 305 297 296 294 290 288 289 287 292 293 297 300 301 303 301 301 300 303 303 307 309 310 306 307 307 313 308 317 319 321 322 324 332 338 340 340 340 340 339 339 340 341 340 339 344 341 345 345 345 345 344 343 343 342 342 341 338 337 339 339 339 340 340 339 340 340 341 340 340 341 341 342 343 343 343 342 341 341 341 340 338 335 334 335 336 336 336 336 336 336 336 337 336 336 336
312 309 309 303 295 294 288 291 291 291 291 293 296 300 310 303 301 299 298 298 301 301 306 309 307 305 305 311 308 313 316 320 322 330 335 337 338 339 339 339 338 338 340 341 341 339 339 340 343 344 344 345 345 343 342 341 341 339 337 336 336 337 337 339 339 340 341 341 341 340 339 341 341 342 341 342 342 341 341 340 337 336 336 336 338 338 337 336 336 336 336 336 336 336 336 335 335
310 307 300 299 298 294 290 290 290 292 292 292 298 304 303 302 301 300 299 301 302 301 306 307 305 306 307 307 305 315 317 320 327 332 335 337 338 339 338 339 339 338 339 340 341 340 339 344 340 342 343 344 345 344 342 341 339 338 337 336 336 337 337 339 341 341 341 340 339 339 340 340 341 341 341 341 341 341 340 339 339 339 339 338 337 335 336 335 335 335 336 336 335 335 334 334 334
305 307 307 299 294 290 291 291 289 291 293 293 294 295 301 298 299 299 299 301 301 305 308 308 310 307 308 311 310 315 318 319 327 329 334 337 337 337 337 338 339 339 338 340 341 341 340 339 341 339 340 341 342 343 342 341 339 338 336 336 337 337 338 340 341 341 340 339 338 338 340 341 341 340 340 340 340 340 339 338 338 338 338 337 337 336 335 335 335 335 335 335 334 333 334 334 334
302 302 302 294 295 294 289 289 290 290 293 293 302 299 298 300 300 300 300 301 301 302 307 307 308 308 308 306 308 313 317 319 322 327 331 335 336 336 336 337 338 339 339 340 341 341 340 338 338 341 336 336 339 340 340 340 340 339 341 340 341 342 342 341 340 339 339 337 336 336 336 336 338 340 340 340 339 339 338 338 337 337 336 336 335 336 335 334 335 335 335 334 333 333 333 333 333
302 303 298 296 295 296 291 290 292 295 289 293 300 298 298 301 301 300 299 300 297 302 299 302 312 309 305 308 309 313 316 319 320 322 329 334 335 335 336 337 338 338 339 341 341 341 340 337 335 338 335 333 333 335 337 338 340 342 343 343 342 341 341 340 339 338 337 335 336 337 340 338 338 338 339 339 338 338 338 337 336 335 335 335 335 335 335 335 334 334 334 333 333 333 332 331 331
304 302 301 298 297 293 291 291 289 291 289 294 294 296 298 300 298 299 300 300 298 296 300 299 312 308 309 309 307 309 314 317 319 323 328 330 332 335 336 337 337 337 338 340 339 340 340 337 336 334 333 333 332 332 334 337 339 341 340 340 341 340 340 340 339 339 339 340 339 338 338 338 339 338 338 338 338 338 339 338 336 335 335 334 334 335 334 334 334 333 333 333 333 332 332 331 332
305 305 301 298 295 295 293 292 291 288 289 291 298 296 298 301 298 299 301 298 299 299 305 308 312 300 294 305 299 313 318 318 319 323 328 330 333 335 335 336 336 336 337 338 338 340 339 336 335 333 331 331 330 331 333 335 335 337 338 338 339 339 339 338 338 337 337 336 334 333 333 332 331 330 332 334 335 335 334 334 337 336 334 334 334 334 333 333 333 333 332 333 333 333 335 333 334
305 302 299 298 294 294 294 290 288 289 291 292 295 296 299 299 297 301 301 302 301 305 305 309 304 300 301 303 308 309 318 318 319 324 328 330 332 333 334 334 334 335 336 336 337 339 338 336 334 331 330 330 330 331 332 333 333 332 334 335 335 336 336 336 334 332 331 328 328 328 327 326 326 325 325 325 328 329 330 328 333 335 334 333 333 332 333 332 332 332 332 332 333 335 330 328 327
303 300 296 293 294 294 295 292 291 292 291 292 293 296 299 298 298 300 301 303 304 303 305 306 304 311 309 308 308 313 318 319 321 325 327 327 329 329 330 331 331 332 334 335 336 338 337 335 334 331 330 329 330 331 331 331 332 331 331 331 332 332 333 333 330 325 324 324 323 323 324 324 324 324 325 323 322 323 323 324 331 334 333 333 332 331 331 332 332 332 331 332 333 332 325 320 320
304 297 291 291 294 295 297 294 292 295 293 294 295 295 297 297 299 302 304 303 302 303 306 306 308 310 310 311 313 316 318 320 321 324 325 325 327 326 327 328 329 328 330 332 335 337 336 335 334 332 330 329 329 330 331 330 331 331 329 329 330 330 328 327 327 327 327 323 320 322 323 324 324 324 325 326 325 325 324 321 324 330 331 330 331 333 332 332 332 331 332 332 334 327 321 313 312
299 293 292 293 294 298 300 295 294 293 294 294 293 293 298 298 298 301 302 299 301 303 303 304 306 309 311 313 316 317 317 318 321 322 322 323 324 325 326 327 327 328 329 331 333 336 336 335 335 332 330 328 329 331 332 332 331 330 328 327 327 327 328 326 327 326 324 322 321 321 321 322 323 324 324 325 324 320 322 320 323 325 326 325 325 327 329 329 332 332 331 331 328 322 315 313 313
299 297 294 293 297 300 299 295 294 294 293 293 293 294 296 298 299 300 301 298 300 301 299 302 303 306 307 311 314 315 316 317 319 319 320 322 323 325 325 325 326 327 329 331 332 335 336 334 334 333 330 329 330 331 332 333 333 333 330 328 327 326 325 324 323 323 322 321 320 320 321 321 321 322 324 325 324 322 321 319 319 321 320 320 318 317 318 320 323 324 322 322 315 311 309 309 309
299 297 294 296 299 298 299 296 294 292 293 293 293 293 295 295 295 299 296 299 298 300 300 304 304 307 308 310 312 314 315 315 316 317 318 320 322 325 325 326 326 327 329 332 332 334 335 334 333 332 330 329 330 331 332 332 333 333 332 331 329 328 325 324 321 319 319 319 318 319 320 320 320 321 321 322 320 320 320 319 318 318 317 316 314 314 310 310 311 310 309 309 307 309 310 310 310
299 298 297 299 299 298 299 297 294 292 292 292 291 295 295 295 296 295 299 298 297 300 304 304 305 306 311 313 314 314 314 315 315 316 317 318 319 321 324 326 327 328 330 329 330 333 335 335 333 332 330 329 330 330 331 331 331 331 331 330 330 328 325 324 321 318 316 316 317 318 318 319 318 319 319 319 318 318 318 318 317 316 315 313 313 311 309 310 310 309 308 308 310 310 311 312 311
298 295 296 296 296 299 298 297 296 294 293 292 291 295 295 295 295 292 299 299 298 298 300 302 304 308 314 314 315 314 314 315 315 316 317 317 318 319 321 323 324 325 328 328 331 333 335 335 333 332 330 329 329 331 331 330 330 331 330 330 329 328 327 324 322 319 317 317 317 318 318 317 317 317 317 317 316 316 317 316 315 314 314 313 313 312 309 309 310 310 310 308 308 311 311 311 313
297 295 295 298 295 298 297 299 296 295 294 293 292 297 297 293 295 293 295 299 302 297 295 294 296 313 315 314 314 315 315 315 316 317 318 318 319 320 321 321 323 324 326 328 330 332 333 334 334 331 330 329 329 330 330 329 329 329 329 328 328 327 326 325 323 322 319 317 317 318 318 317 317 317 316 314 314 314 315 315 314 313 313 312 313 311 308 307 309 311 310 308 310 310 311 312 312
297 296 295 297 295 294 294 295 296 295 295 296 296 297 296 293 294 293 294 297 298 296 297 303 309 312 313 313 314 315 315 315 315 316 316 317 317 317 316 318 320 320 323 326 329 330 332 334 334 332 330 329 329 329 328 328 328 328 327 327 327 326 327 326 325 323 319 317 318 318 317 317 317 317 316 315 313 312 313 312 313 313 312 311 312 312 311 309 308 308 309 309 309 310 309 312 313
297 297 296 295 296 296 296 297 297 297 299 296 298 296 295 295 296 297 299 300 298 295 298 307 310 311 313 314 315 315 315 315 316 315 317 317 314 315 316 317 318 319 321 324 327 329 331 334 334 332 331 329 329 328 328 327 327 326 326 326 326 325 326 327 326 322 320 318 317 318 317 318 317 317 317 315 312 311 311 311 311 311 311 311 311 312 311 310 310 309 308 308 309 310 312 314 314
297 296 297 297 297 296 297 297 296 297 299 297 297 296 298 298 297 295 297 300 298 298 301 305 310 311 313 314 314 315 315 315 316 317 314 315 315 315 317 316 317 320 320 320 324 327 330 332 333 333 332 329 329 327 327 327 326 325 325 325 325 324 325 325 324 323 320 318 318 318 318 318 318 317 317 314 312 311 310 310 311 311 310 311 311 312 308 311 310 310 310 311 311 311 312 310 310
297 296 296 297 296 297 297 297 296 298 300 297 299 297 296 296 295 295 300 299 295 297 298 302 307 310 313 314 315 315 315 317 316 314 316 315 317 317 317 317 317 318 319 320 321 324 327 330 332 333 333 330 328 328 326 326 325 325 324 324 324 324 324 323 323 323 319 318 317 317 317 317 316 316 316 315 314 313 311 311 312 311 313 312 312 312 311 309 310 310 310 310 311 310 309 309 308
298 299 299 295 297 297 297 297 297 297 298 298 298 296 295 296 296 296 301 300 296 296 296 301 304 307 310 312 314 314 316 317 315 316 317 318 319 319 318 319 319 318 320 321 321 320 324 327 330 332 333 331 329 328 327 326 325 324 322 323 323 322 322 322 322 322 320 318 317 317 317 317 316 317 316 316 314 314 313 312 311 312 314 314 313 311 310 309 309 309 310 309 309 310 310 311 309
299 298 297 297 295 294 298 297 298 297 298 296 299 291 294 297 300 298 300 301 298 297 295 296 302 304 307 310 313 315 315 315 316 317 318 319 319 319 318 319 319 319 319 319 319 320 322 326 329 330 331 331 329 329 328 326 325 324 323 322 321 320 320 320 319 320 319 318 317 317 317 317 316 317 316 315 314 314 313 312 313 313 313 312 311 309 310 308 309 309 311 311 312 311 311 310 309
297 297 298 293 295 294 296 298 297 297 298 296 298 292 295 299 297 298 299 298 299 300 299 297 297 300 303 306 311 313 315 316 317 319 319 319 319 319 319 319 319 319 318 318 319 320 320 322 325 328 328 331 329 329 327 327 325 324 323 322 321 320 319 319 319 319 319 319 318 317 317 317 316 316 316 316 314 314 313 312 312 314 314 310 310 309 312 310 311 313 310 310 311 309 308 307 309
294 296 293 294 296 296 296 297 297 298 298 297 298 292 295 299 299 299 299 299 298 299 300 299 298 297 298 301 304 309 313 316 317 318 319 319 320 320 320 320 319 319 319 319 319 319 320 321 322 325 325 328 330 329 329 328 325 324 323 321 322 321 320 319 319 318 318 318 318 318 317 317 316 316 316 315 315 314 313 314 314 314 311 310 311 309 311 312 311 312 311 312 311 311 307 312 307
295 295 291 292 292 295 296 297 296 299 298 299 299 293 294 296 298 296 295 299 297 296 297 297 297 296 296 297 300 303 306 310 314 317 319 320 320 321 321 321 320 320 319 319 319 318 319 319 320 322 323 326 328 329 329 328 325 323 322 322 322 321 320 319 319 317 317 317 318 318 318 317 316 317 316 314 315 314 313 314 313 314 311 313 311 311 311 313 313 313 311 310 312 312 309 309 307
292 292 291 291 291 293 293 295 296 296 297 296 296 295 298 300 297 297 297 297 295 295 297 297 298 298 298 297 297 299 302 305 307 313 317 319 321 321 322 320 321 320 320 319 319 319 319 320 320 321 323 324 327 327 327 327 325 323 322 321 320 321 320 320 319 318 318 318 317 317 318 318 317 316 316 315 314 315 314 314 314 313 312 312 311 311 313 312 311 313 313 310 311 312 308 308 308
292 291 291 293 294 294 294 294 296 297 295 294 294 294 297 300 301 300 298 294 296 296 297 298 298 298 298 297 297 297 298 301 304 308 313 318 320 321 322 321 321 320 320 320 319 319 320 320 319 319 320 322 324 326 326 325 324 322 320 319 319 319 319 320 320 318 319 318 317 317 317 317 316 316 316 316 316 315 314 314 314 313 313 312 312 312 311 310 310 309 312 312 307 310 311 309 311
294 294 294 293 292 291 291 294 295 297 294 293 292 293 295 298 299 300 300 299 297 299 298 298 298 298 298 298 297 297 298 299 303 306 309 313 318 320 321 322 321 321 321 320 319 319 319 319 319 319 319 321 322 323 324 323 322 319 318 317 317 317 318 318 318 319 319 319 319 318 318 317 317 316 317 317 316 316 315 314 314 313 313 313 312 311 311 311 312 310 309 311 309 307 305 306 305
297 296 295 294 293 291 291 293 294 296 295 293 294 294 294 297 298 298 298 297 297 299 300 301 302 301 300 300 300 301 300 301 304 304 305 309 315 319 320 321 321 321 320 320 319 319 319 319 319 319 319 320 320 321 321 321 320 319 318 318 318 318 318 318 318 319 319 319 319 319 318 317 317 316 316 317 317 316 316 315 315 314 314 313 313 313 314 313 313 313 312 309 311 307 309 307 304
297 293 293 293 292 292 293 295 294 294 294 290 292 293 294 296 298 298 298 296 297 299 300 301 301 302 301 301 301 301 301 300 300 301 301 305 311 315 318 319 318 319 320 320 319 319 319 320 319 320 320 319 320 321 321 321 321 321 320 319 319 319 318 317 318 319 319 319 319 319 318 318 318 317 316 317 317 317 316 316 315 316 315 314 314 314 313 311 311 310 309 308 310 311 311 310 310
298 295 292 290 291 290 294 294 293 292 294 292 292 291 294 296 298 299 298 298 300 302 302 302 302 302 301 301 301 300 299 299 300 300 301 302 307 311 315 318 319 321 321 321 320 320 319 319 320 320 320 320 320 321 321 320 321 321 321 320 320 319 320 320 320 320 320 319 319 319 319 319 318 318 317 316 317 317 317 316 316 316 315 314 313 312 312 311 312 312 311 313 310 309 310 308 310
296 295 293 292 294 292 289 294 291 291 294 288 287 288 291 294 296 296 298 298 299 302 302 301 301 301 302 302 302 302 300 300 300 301 301 300 304 309 312 315 318 320 320 321 320 320 320 319 320 320 320 320 321 321 319 321 321 321 321 321 321 321 319 319 319 317 318 318 318 318 318 319 319 319 318 317 317 317 317 317 317 316 316 315 315 314 313 313 312 312 311 311 312 311 310 312 310
297 296 294 294 292 295 294 293 290 290 291 291 290 291 293 295 295 298 299 298 298 299 300 299 300 300 302 302 302 302 302 302 302 302 302 300 300 304 309 314 317 318 320 321 321 321 321 320 320 320 320 320 321 320 320 320 319 318 318 314 315 314 314 313 314 316 317 317 317 317 317 318 319 319 319 318 316 317 317 318 317 317 317 316 316 315 315 314 314 313 313 312 312 314 310 310 311
297 296 295 296 295 295 294 293 293 290 288 289 291 286 290 290 295 297 299 294 293 295 295 297 299 300 300 300 301 302 302 302 303 303 304 303 301 302 305 310 314 317 318 320 322 323 322 322 321 321 321 321 321 321 320 320 319 319 317 317 315 315 316 315 315 316 316 316 317 319 318 317 318 319 319 319 318 316 317 318 318 318 318 317 316 317 317 314 313 313 313 314 313 313 315 312 311
294 296 297 294 294 294 293 291 295 288 288 290 289 289 288 288 290 291 293 291 294 296 294 297 299 300 299 300 301 302 302 303 303 303 303 302 301 301 303 307 312 315 317 320 321 322 323 323 322 321 321 321 321 321 321 319 319 319 319 318 318 318 317 318 319 319 319 319 319 318 319 317 318 318 318 319 320 318 318 318 319 319 319 319 315 316 316 315 316 315 314 314 315 314 312 313 312
293 296 297 295 294 292 292 293 293 292 292 292 288 289 285 287 293 292 293 294 296 297 298 297 297 298 298 299 300 301 302 303 303 303 304 304 304 303 303 305 309 313 316 318 320 321 322 322 322 322 321 320 322 322 321 320 320 319 319 318 318 319 318 319 318 319 319 318 318 318 318 318 317 318 318 319 320 320 319 319 319 319 319 319 317 317 317 317 317 315 314 315 315 314 314 315 313
294 296 299 295 295 293 292 292 288 287 289 288 288 287 284 285 286 291 295 294 295 295 297 300 302 303 302 300 300 300 301 302 302 303 304 304 305 304 304 304 307 311 314 316 318 320 321 322 322 322 322 321 321 321 320 320 320 320 319 319 318 318 320 319 318 317 318 316 317 317 317 318 318 318 318 318 319 320 318 318 319 319 319 319 316 318 318 318 317 316 313 313 314 314 315 315 314
296 296 297 295 292 290 292 287 288 289 288 286 289 288 286 288 290 288 287 288 292 293 296 299 300 301 302 302 302 302 300 299 300 301 302 303 303 304 305 305 305 308 313 315 317 319 320 321 321 321 322 322 322 321 320 320 320 319 319 319 319 319 318 318 315 316 315 315 316 317 317 317 318 317 317 318 318 318 319 318 318 319 319 319 316 318 318 318 317 317 316 315 315 314 314 314 315
298 299 297 292 287 285 284 284 286 287 284 287 293 289 289 285 289 290 289 290 292 294 295 297 298 300 301 301 301 302 301 299 299 299 300 301 302 303 303 303 304 306 310 313 315 317 319 319 320 321 322 323 322 321 320 320 320 320 320 320 319 319 319 318 317 317 315 314 315 316 316 316 316 317 317 317 318 318 318 318 318 319 319 318 316 318 318 318 318 317 317 316 315 315 314 314 313
299 292 291 292 289 289 288 286 287 285 284 290 293 289 290 284 286 288 293 291 290 295 295 296 298 299 300 300 301 300 298 298 298 297 298 299 299 299 298 300 302 304 306 310 314 316 317 318 319 320 321 322 322 322 321 320 320 320 320 320 320 320 320 319 318 318 317 316 316 316 315 315 315 316 317 317 317 317 317 318 317 318 317 318 318 318 318 318 318 317 317 316 316 315 316 314 315
297 294 294 288 285 287 282 286 282 283 283 287 286 290 285 287 293 288 288 292 294 292 294 297 298 299 300 299 298 297 295 294 295 296 297 297 298 299 298 299 299 301 304 308 312 314 316 317 318 319 320 321 322 322 321 320 320 320 320 320 320 320 320 320 320 319 319 318 317 316 315 315 316 315 316 317 317 316 316 316 317 317 317 317 318 318 318 317 317 317 316 316 316 316 316 316 316
295 293 290 287 283 282 280 284 285 286 286 291 285 287 286 293 295 299 299 300 299 297 297 296 298 300 299 298 296 297 297 294 295 295 295 296 297 298 298 298 299 300 302 306 309 312 315 316 317 318 319 320 321 321 321 320 320 320 320 320 320 320 320 320 321 320 320 320 319 318 318 318 317 317 317 317 317 316 316 316 316 317 317 317 317 318 318 317 317 317 316 316 316 317 316 316 316
295 296 294 288 287 283 280 283 280 282 285 283 285 287 283 286 289 289 291 295 298 298 294 296 296 295 297 297 296 296 296 298 297 296 297 297 298 298 298 298 298 299 301 304 308 311 313 315 316 317 318 319 320 320 321 321 321 321 321 321 321 321 320 320 321 321 321 320 320 320 319 319 319 319 318 318 315 317 317 317 316 316 317 317 317 317 317 317 316 316 316 316 316 316 317 316 316
296 295 296 290 287 288 284 283 285 285 282 279 278 282 286 291 292 294 293 290 292 293 293 294 296 298 297 295 295 296 297 297 297 297 297 296 297 297 297 297 298 298 300 302 306 310 312 314 315 317 317 318 319 319 320 321 321 322 321 321 321 320 319 320 320 320 321 322 321 321 321 320 321 320 319 318 317 318 318 317 317 317 318 317 317 317 317 317 316 317 318 317 317 316 317 317 317
293 295 289 292 297 292 286 285 284 283 280 282 280 282 285 290 295 298 298 296 296 295 295 294 295 296 295 294 296 296 295 295 295 295 296 296 295 295 296 297 297 297 298 301 305 309 311 313 314 315 316 317 318 319 320 321 321 320 320 321 321 321 320 320 321 321 321 321 322 322 322 322 321 321 320 319 320 320 320 320 320 319 319 319 319 318 318 318 318 317 318 318 318 318 316 317 318
294 289 294 296 296 294 290 283 280 279 280 281 285 285 286 283 284 287 291 294 296 296 297 297 296 295 294 295 295 295 295 295 294 293 294 294 295 295 295 295 296 297 299 300 303 306 310 312 313 314 315 316 317 318 319 320 320 320 320 320 321 321 322 321 321 321 321 320 321 322 322 321 321 321 321 321 321 321 321 316 321 321 321 320 320 321 320 320 319 319 319 319 319 319 317 317 317
296 293 300 292 285 286 285 286 279 278 278 279 281 285 286 285 288 287 287 289 293 295 298 298 297 296 296 295 294 294 294 294 293 293 293 292 293 294 294 295 295 295 296 299 301 304 307 309 312 314 314 316 316 318 318 319 320 320 321 320 320 321 322 322 322 321 320 320 320 321 321 322 321 320 319 321 320 321 320 320 320 321 321 320 321 321 321 321 320 319 319 318 319 318 318 316 316
294 297 296 295 292 288 286 287 286 284 280 277 281 282 282 289 290 293 292 290 292 294 295 296 298 298 298 298 295 293 294 294 294 293 293 292 292 293 293 294 294 293 293 294 296 298 305 308 309 311 312 313 313 314 315 316 317 319 319 319 319 320 320 321 321 321 321 321 321 320 320 320 321 318 321 321 320 320 319 318 318 320 320 320 320 320 321 321 320 320 319 318 317 318 317 316 315
291 292 290 290 289 290 289 288 286 283 283 281 277 280 281 288 291 290 292 292 293 294 295 296 297 298 298 298 297 295 294 294 294 294 294 293 292 291 290 290 290 288 288 289 293 297 303 303 307 309 311 311 311 313 314 316 316 316 316 317 317 318 319 320 320 320 319 320 320 318 320 320 318 321 320 319 319 319 319 319 319 318 320 320 320 320 320 320 320 319 318 318 317 316 316 316 314
294 293 291 293 290 286 285 283 289 284 283 278 278 280 288 288 288 294 293 294 294 295 296 297 297 297 297 296 295 294 294 295 295 295 294 293 291 290 289 287 285 285 288 289 291 291 294 300 306 307 307 309 310 311 312 314 313 315 315 316 316 316 317 317 317 318 317 319 319 319 320 319 320 321 319 319 319 319 318 318 318 319 318 319 320 320 320 319 318 317 317 318 316 315 314 315 314
Wind_Speed
6 4 2 2 3 1 2 7 1 3 3 0 0 1 1 0 1 1 2 2 0 1 0 1 1 3 2 3 5 2 1 5 5 5 1 1 2 5 4 6 8 8 7 5 4 4 3 5 9 8 9 10 10 9 9 10 10 8 8 7 6 7 8 10 11 11 11 11 13 14 15 15 14 13 13 13 13 14 14 14 13 14 14 15 14 14 14 14 13 13 13 13 14 14 14 15 14
4 3 4 1 1 1 1 1 4 3 6 2 2 1 2 2 1 3 3 2 1 1 1 4 6 6 7 6 6 3 1 0 2 1 0 2 6 6 7 9 10 11 7 5 4 4 3 3 8 9 10 11 10 9 10 10 10 7 9 8 7 6 9 12 11 11 11 10 11 12 14 14 14 13 13 13 13 13 13 13 13 13 13 13 13 14 13 13 13 13 13 14 14 13 14 14 14
3 5 4 4 2 5 2 4 1 1 4 1 3 5 1 1 2 3 3 2 2 4 1 3 3 2 1 2 2 2 1 1 2 1 3 5 11 6 8 9 9 9 10 5 5 4 3 3 6 9 10 11 10 9 9 10 9 9 9 8 7 7 8 10 10 10 11 11 11 11 11 11 11 12 12 13 13 14 14 14 13 14 14 14 14 13 13 13 13 13 13 13 13 13 13 14 14
1 4 3 2 2 4 1 4 5 5 3 4 1 2 1 2 3 3 2 2 4 1 0 0 1 1 0 3 0 0 1 0 1 5 5 7 2 8 10 9 8 8 6 5 5 5 4 4 6 8 9 10 10 9 10 9 9 8 8 8 7 6 9 11 11 11 12 12 11 10 10 10 9 10 12 13 13 13 13 12 12 12 12 12 12 12 12 13 13 13 13 12 13 13 14 13 13
2 2 4 3 2 2 2 1 4 2 1 5 2 3 3 3 3 2 0 1 2 0 1 0 2 3 0 3 0 1 0 1 1 4 2 1 2 8 10 10 9 9 9 6 6 5 4 8 7 7 9 10 10 10 10 10 9 9 8 8 8 8 9 10 10 10 10 11 11 11 10 10 9 11 12 12 12 13 12 12 12 11 12 12 12 12 12 12 12 12 12 12 12 13 13 13 13
3 3 3 2 1 2 5 1 2 0 3 5 0 1 3 5 4 3 1 2 3 0 3 1 1 3 1 1 2 0 2 1 1 2 4 4 8 9 12 8 9 8 8 6 6 5 5 9 9 9 9 9 10 10 9 9 10 9 9 9 8 9 8 8 10 11 10 11 10 11 11 9 11 11 12 12 11 13 12 12 12 12 11 11 11 11 11 11 11 11 12 12 12 13 12 12 12
2 3 4 4 2 4 3 2 1 2 1 4 0 1 5 4 3 3 0 1 0 2 2 0 1 2 3 1 1 1 2 1 1 1 6 5 8 9 10 9 8 9 9 6 5 6 6 10 11 10 10 10 11 10 9 9 10 9 10 11 10 9 9 10 10 10 9 9 10 10 10 9 9 11 11 12 11 11 12 12 11 10 11 11 11 11 10 10 10 11 11 12 13 12 12 12 13
1 2 2 2 1 3 2 1 2 4 1 5 1 2 4 5 3 4 3 1 1 1 0 0 1 2 1 2 1 1 2 2 2 0 6 8 8 8 9 10 9 10 10 6 5 4 10 11 11 10 10 11 11 11 10 9 9 8 7 8 10 9 11 10 9 9 10 10 10 9 9 10 10 9 10 10 11 11 12 12 12 11 9 9 10 10 10 10 10 10 10 11 12 12 12 12 12
4 5 1 2 1 3 2 1 2 2 5 1 4 4 2 3 4 3 1 1 0 0 1 1 0 1 2 0 2 2 2 3 1 5 9 10 9 8 7 9 10 10 8 6 5 4 4 9 10 11 10 10 10 12 11 10 9 7 7 7 7 9 9 9 9 9 9 10 11 9 8 9 9 9 9 10 10 10 11 11 10 9 9 9 10 10 9 9 9 10 11 12 12 12 12 12 12
2 2 2 1 2 1 2 2 2 1 2 1 2 1 3 2 2 0 1 1 1 1 1 1 1 0 1 2 2 1 0 2 2 6 8 9 10 8 8 8 10 12 9 7 5 4 4 9 9 10 9 10 11 10 11 11 10 8 7 7 8 7 8 9 8 9 9 9 9 9 8 7 7 9 8 9 9 10 10 10 10 9 9 9 9 9 8 8 9 10 11 12 11 11 11 11 12
0 4 1 2 3 1 0 2 2 3 1 4 3 4 3 3 3 0 1 1 1 2 1 2 0 2 2 2 3 2 3 0 5 8 8 10 9 8 7 7 6 9 10 9 6 5 4 4 8 9 9 9 11 10 10 11 11 9 8 7 8 8 8 8 9 9 8 7 7 8 9 8 7 7 8 8 8 8 9 9 9 9 9 8 8 7 7 7 8 9 11 11 11 10 10 10 12
1 2 2 3 2 2 3 1 2 5 6 2 1 0 3 5 2 2 1 3 1 0 3 4 1 6 3 2 3 1 4 3 4 4 6 7 8 7 7 5 8 7 6 8 6 5 4 4 4 7 9 8 8 10 10 9 10 9 6 6 8 8 9 8 7 8 8 7 7 7 6 6 8 8 8 8 7 7 8 8 8 7 7 6 6 6 6 6 7 9 10 10 10 10 9 10 10
3 1 4 3 1 0 1 0 1 1 3 3 2 1 2 4 3 4 4 1 1 2 4 8 1 2 2 3 4 5 1 4 3 3 5 7 6 5 5 6 8 7 7 6 7 6 5 4 4 5 5 8 8 9 9 9 9 10 8 8 8 8 9 10 8 8 8 6 6 7 7 9 7 7 7 8 7 7 7 7 6 6 6 6 5 5 5 5 7 9 9 9 9 9 9 9 9
3 4 3 1 1 2 2 0 2 1 2 2 1 0 1 2 3 4 4 3 2 3 1 1 3 3 1 1 5 3 4 3 4 5 4 4 5 6 7 6 6 6 6 7 8 6 5 4 4 4 5 5 4 6 8 9 10 11 9 8 8 9 8 9 8 7 7 8 10 10 10 10 10 8 7 6 6 4 5 5 6 6 6 6 5 5 4 5 7 7 8 8 8 8 8 8 8
1 1 4 3 1 1 2 1 2 3 3 2 1 3 1 3 2 4 7 4 6 3 1 0 3 2 4 5 4 7 5 5 5 4 5 5 5 6 7 6 7 6 6 6 6 5 5 5 4 4 4 4 5 4 4 8 11 10 11 10 9 9 8 7 8 10 10 10 10 10 9 9 9 9 8 8 7 7 7 8 7 5 6 6 4 3 3 4 5 6 6 6 7 8 8 7 7
3 4 2 2 1 2 2 2 0 2 4 4 1 1 2 1 1 4 4 2 1 1 1 2 0 1 1 5 0 4 3 6 4 5 6 6 5 4 5 6 8 7 6 7 7 5 5 5 4 4 4 4 4 4 5 5 9 11 11 11 9 7 9 9 10 10 10 9 9 9 9 6 6 6 8 6 9 9 8 6 7 6 5 4 3 3 3 4 4 4 5 5 6 7 7 7 7
2 3 1 2 3 3 3 2 5 2 3 3 3 1 4 1 1 1 1 1 3 1 2 1 2 0 3 3 2 3 5 7 7 6 7 5 5 4 3 4 4 6 4 6 6 6 5 6 5 5 4 4 4 5 5 5 7 10 9 10 11 10 10 10 11 11 10 8 7 7 6 4 3 3 4 4 6 5 7 7 6 5 4 3 2 2 3 3 3 3 4 5 6 6 7 6 6
1 2 4 1 3 5 5 5 8 1 0 2 1 3 3 1 1 0 1 3 2 1 1 3 1 3 3 4 3 1 6 10 7 10 8 7 5 5 5 4 5 5 6 6 6 6 5 6 6 6 4 4 4 5 4 4 5 7 5 5 6 8 9 9 8 7 7 5 6 4 3 3 2 2 3 3 3 3 5 7 6 7 7 7 6 4 3 2 2 2 3 4 5 6 6 3 3
3 2 2 8 4 4 5 5 6 3 1 1 2 1 2 2 4 1 1 1 0 0 3 1 4 4 1 2 2 7 7 8 8 9 10 10 9 9 7 6 5 5 7 7 7 9 6 5 6 6 5 4 5 4 4 4 5 4 4 4 5 7 7 7 6 7 5 5 4 4 3 2 2 2 2 2 2 4 4 5 6 5 5 4 4 5 5 5 5 5 5 5 4 5 2 2 3
1 5 4 7 5 2 3 2 4 4 5 2 2 0 1 1 2 0 1 2 0 5 4 2 4 6 5 0 1 5 6 7 7 9 11 11 9 11 9 9 7 7 7 7 6 6 6 5 7 6 5 5 5 5 5 5 5 4 4 4 4 5 5 6 5 7 6 6 5 4 3 3 3 2 3 4 3 1 1 3 4 4 2 2 3 3 4 4 4 4 4 4 3 2 2 2 2
1 2 6 4 4 2 3 6 2 5 4 4 4 1 1 1 2 2 3 2 4 6 6 8 10 10 5 4 4 5 7 8 7 7 9 10 10 9 10 10 10 8 6 5 5 7 7 7 6 7 6 5 6 6 6 6 5 4 4 4 4 5 5 5 6 6 6 6 6 5 5 4 3 2 2 2 1 2 1 1 1 1 1 1 1 1 1 2 2 2 2 2 2 2 3 1 1
3 5 2 2 1 1 2 5 3 4 1 4 3 5 4 1 1 3 6 6 7 7 8 8 7 5 6 8 8 5 7 9 9 9 11 12 13 12 8 7 4 4 4 7 9 8 7 7 7 7 6 6 6 7 6 6 7 6 5 5 5 4 5 5 5 6 6 6 6 6 5 5 4 3 3 3 3 3 3 2 2 2 2 2 1 1 1 1 1 1 2 2 3 2 2 2 1
3 2 2 2 2 3 1 2 3 4 3 3 4 3 3 2 1 2 6 7 6 6 1 3 7 5 3 2 8 8 8 11 11 13 12 11 10 10 10 8 8 8 7 7 6 6 6 7 7 7 7 6 7 6 5 6 6 6 6 6 6 5 4 5 5 5 6 6 7 6 6 5 4 4 4 4 4 3 4 3 3 2 2 2 2 2 1 1 1 2 2 2 2 3 2 2 3
1 3 1 2 2 4 0 1 4 2 6 3 2 1 1 3 4 1 4 8 8 4 1 3 4 3 5 7 9 13 14 13 15 14 13 14 14 14 11 11 8 5 6 7 7 7 7 8 8 8 7 7 6 7 6 6 5 6 7 7 7 8 6 5 6 5 5 6 7 7 6 5 6 5 5 5 5 4 5 4 3 3 3 2 2 1 1 1 1 1 2 2 3 3 3 3 3
3 3 2 0 1 2 1 1 2 1 1 0 3 2 3 5 2 3 5 10 8 6 1 1 3 4 4 5 9 9 9 8 10 9 5 6 6 5 4 5 4 5 8 8 7 7 8 8 9 9 8 9 7 7 7 7 6 7 6 7 7 7 8 7 6 6 6 6 6 7 7 6 5 5 5 5 4 4 4 4 3 4 3 3 2 3 2 2 2 1 1 2 2 3 3 3 3
4 5 1 0 1 1 0 0 0 0 0 0 1 4 4 4 1 3 8 7 5 1 1 2 4 4 6 8 9 9 10 12 10 8 12 7 4 6 7 7 6 9 10 9 9 8 7 8 9 10 10 9 7 8 7 8 7 8 8 8 8 7 8 8 8 6 6 6 6 6 7 7 7 6 6 4 5 5 4 3 3 3 3 3 3 3 3 2 3 1 1 2 2 3 4 3 1
3 3 4 2 1 1 2 3 1 1 1 1 3 2 2 2 2 7 2 9 0 1 0 1 5 6 7 6 7 8 9 12 14 10 3 5 7 9 9 7 9 10 7 9 9 9 8 8 9 10 10 9 8 8 7 8 7 8 8 8 7 8 8 7 7 6 6 6 6 6 6 6 6 6 6 5 5 5 4 4 4 4 4 4 3 3 2 3 1 2 3 3 3 4 4 2 2
3 4 1 1 2 1 0 0 2 0 1 3 2 3 2 3 1 6 1 1 2 3 2 2 4 6 8 9 9 8 8 10 5 4 11 9 12 11 11 11 12 8 9 10 9 8 8 10 10 10 10 9 9 9 8 8 8 8 7 7 8 7 7 7 7 6 6 6 5 5 5 5 4 5 5 5 5 5 5 5 4 4 5 3 4 3 3 2 2 1 1 2 2 1 2 2 1
2 3 2 2 2 3 1 4 1 2 3 3 3 2 5 3 7 3 7 2 1 2 3 4 5 7 7 6 7 6 11 8 5 7 13 13 10 9 13 12 10 10 8 8 8 8 10 10 10 10 10 9 11 10 9 8 7 7 7 8 7 7 7 6 7 7 6 5 5 5 5 5 5 5 5 5 5 5 5 5 4 4 5 3 3 3 2 1 1 2 3 0 0 0 0 1 1
2 3 2 3 1 3 6 1 1 3 2 4 1 7 6 12 10 4 6 5 1 2 5 5 6 6 6 5 7 8 7 6 9 13 13 11 9 9 11 10 10 10 8 6 7 10 9 7 8 8 9 10 11 10 9 8 8 7 7 6 6 6 6 7 7 6 6 5 5 5 5 6 6 6 6 5 5 5 5 5 5 5 5 4 3 2 3 3 3 2 4 1 3 1 3 3 3
3 1 2 4 2 5 1 4 4 4 2 4 2 7 10 9 3 4 6 5 6 8 7 7 7 7 6 6 7 8 9 9 13 13 12 9 8 7 10 7 9 9 6 7 11 11 9 9 8 7 10 11 11 10 10 9 8 8 7 7 6 6 6 6 6 6 6 6 5 6 7 7 7 7 6 6 6 5 5 5 5 5 4 3 3 3 4 3 3 5 3 3 3 2 3 3 3
0 2 6 1 7 2 2 1 6 9 1 2 3 7 12 13 6 6 5 6 6 10 8 7 7 7 7 6 7 8 10 8 9 10 10 10 9 9 10 11 9 9 11 10 9 8 10 9 9 9 10 12 11 12 11 10 9 8 7 7 7 7 7 7 6 6 5 5 6 6 6 6 6 5 5 5 5 5 5 5 5 4 4 3 4 3 3 5 5 5 3 3 4 5 3 5 1
2 7 0 5 3 3 5 1 4 7 3 1 8 8 6 7 4 3 1 3 2 5 6 7 7 8 8 7 7 8 8 8 9 11 12 12 11 11 11 10 11 12 11 10 10 9 9 10 10 11 12 13 12 12 12 10 8 8 8 8 8 8 8 7 6 5 6 6 6 7 6 6 6 5 5 4 5 5 5 5 5 5 4 5 5 5 5 4 5 4 4 4 4 5 5 5 3
5 0 3 1 4 3 4 2 3 5 4 5 5 7 16 6 3 0 1 2 3 4 7 7 8 8 8 7 7 8 9 9 11 11 14 14 12 13 12 11 10 9 9 11 10 12 12 10 10 11 10 11 11 11 11 10 9 9 8 8 7 8 8 7 6 6 7 7 7 7 7 7 6 6 6 5 6 6 6 6 6 6 5 5 5 5 5 4 4 5 5 5 5 4 5 5 5
5 4 2 0 1 5 6 4 2 6 2 6 3 7 15 14 7 7 4 0 1 5 7 8 8 6 6 6 7 9 10 10 13 12 13 12 12 11 10 10 9 9 9 11 10 10 8 8 8 10 10 10 10 10 10 9 9 7 6 6 6 7 6 6 6 6 7 7 7 7 7 7 7 6 7 6 7 7 6 6 6 5 5 5 5 5 5 4 4 4 5 5 2 4 5 5 5
5 5 3 3 5 5 6 6 1 8 5 7 7 8 13 19 11 10 7 6 5 9 8 8 8 7 8 9 9 9 9 12 12 11 10 7 8 9 10 9 9 9 9 9 11 10 10 9 8 8 9 9 8 8 8 8 7 8 8 5 6 7 6 6 7 8 7 7 8 8 8 7 7 7 7 8 8 7 7 6 6 5 5 5 6 6 6 6 7 5 5 6 5 4 2 2 2
8 7 7 8 6 4 3 3 2 0 0 7 9 8 11 19 11 7 6 2 4 9 14 15 12 9 9 10 13 14 13 15 11 9 8 6 8 9 9 8 8 8 8 9 11 12 13 13 11 12 10 9 9 9 8 9 9 7 7 9 10 8 9 9 9 8 8 8 9 9 8 7 7 7 8 8 8 8 7 6 7 6 6 7 7 8 8 7 7 6 5 5 6 4 3 1 2
6 4 5 6 6 8 4 4 1 0 3 3 3 6 12 18 14 10 6 3 8 12 15 15 15 11 10 13 16 16 14 7 7 9 8 5 7 8 8 8 8 10 11 12 13 14 13 12 13 12 9 10 11 11 10 10 10 10 10 10 9 9 8 9 10 8 9 9 9 8 8 7 8 8 8 8 9 9 8 8 8 8 7 7 7 7 6 6 6 5 4 3 2 5 4 4 4
1 3 4 3 6 2 5 3 1 0 2 7 4 7 10 14 16 8 6 7 9 13 15 15 13 13 11 13 14 13 10 13 10 11 9 6 7 7 8 9 10 13 14 14 14 12 12 13 13 11 11 12 12 12 11 11 9 9 9 7 10 8 8 9 9 9 9 10 9 8 8 8 8 8 9 9 9 9 9 8 8 7 7 7 6 6 6 6 6 7 7 7 3 1 2 2 5
3 2 3 7 2 5 5 4 2 2 5 1 1 5 9 10 14 14 11 9 11 15 14 13 10 13 16 16 13 13 13 12 12 13 12 8 7 7 7 8 11 11 11 9 10 13 12 12 12 13 13 13 12 13 13 11 11 10 9 8 7 8 6 6 6 4 5 7 8 8 9 8 9 10 9 9 8 8 9 9 8 7 8 7 8 8 7 7 6 6 6 6 5 4 3 4 5
3 4 5 4 4 6 7 3 1 1 2 1 4 9 12 9 13 15 8 13 12 14 11 10 11 13 16 12 11 13 14 12 12 13 11 6 7 9 11 12 10 11 12 12 12 13 11 15 15 15 13 13 12 12 13 10 8 6 6 3 1 3 2 2 4 7 7 7 7 8 9 9 9 9 8 9 9 9 8 8 8 8 8 7 7 8 8 9 8 7 7 7 7 7 5 3 3
7 6 8 5 5 6 4 1 1 2 4 1 2 5 10 4 12 15 6 1 4 6 7 12 14 12 11 13 17 14 11 11 13 15 14 8 10 10 8 9 10 12 13 14 13 15 15 14 14 13 12 12 13 13 13 11 10 10 9 9 9 8 9 8 10 11 9 10 11 7 6 8 8 9 9 9 9 8 9 9 9 9 9 8 8 9 7 5 6 7 8 8 8 7 8 5 4
8 6 8 4 4 5 4 2 1 3 6 2 1 6 12 1 5 5 7 5 9 8 6 11 12 12 11 13 14 11 12 13 11 12 12 9 11 9 10 11 13 14 15 12 12 14 15 13 12 13 13 12 12 12 13 12 12 11 14 14 13 13 13 11 9 8 9 9 7 8 8 7 9 10 9 9 9 10 9 9 9 9 9 8 7 7 7 8 8 9 7 8 9 8 6 7 9
7 2 10 6 5 4 3 2 1 3 1 3 1 2 6 13 12 4 7 12 12 11 12 10 12 12 11 12 12 11 13 12 11 11 13 13 13 12 14 14 12 15 14 11 13 13 13 15 14 15 13 13 12 12 13 14 14 13 13 13 12 13 13 13 10 10 8 7 8 10 8 8 9 10 10 9 10 10 9 9 9 9 9 9 8 9 10 9 7 7 9 10 8 8 10 11 9
2 5 9 6 6 4 3 3 2 0 4 8 2 1 3 9 5 4 9 13 13 11 13 15 15 16 12 12 14 14 14 12 10 12 13 13 14 13 13 12 13 13 11 12 14 14 14 14 14 13 13 13 11 13 14 14 14 14 14 12 12 12 12 10 7 7 9 7 9 7 8 8 8 9 10 10 10 10 9 10 9 10 10 9 8 9 9 9 11 9 9 9 10 9 9 9 6
2 1 4 4 4 3 5 2 4 0 2 10 9 6 7 17 8 4 1 6 12 8 12 15 13 15 15 12 11 12 10 9 10 13 12 10 10 9 10 10 8 12 11 12 12 11 12 12 13 14 15 13 13 14 14 15 15 12 13 13 16 13 10 8 6 7 7 6 10 9 8 8 8 8 9 10 10 10 10 10 11 12 11 10 9 11 10 10 10 10 11 11 10 10 8 8 10
3 4 6 3 4 3 2 2 3 1 7 14 12 10 9 12 5 8 7 9 7 9 8 8 12 14 13 11 12 12 8 7 8 9 10 11 9 9 7 10 13 10 8 9 11 11 10 11 12 14 16 13 13 15 15 16 15 14 14 15 16 15 12 10 9 9 7 7 10 9 9 8 8 9 8 9 11 10 11 11 11 11 10 10 10 10 11 10 10 10 9 9 9 11 8 9 9
7 1 3 3 1 2 1 1 2 7 10 15 10 11 11 11 5 2 4 2 3 7 9 11 13 13 11 10 11 10 7 7 7 7 9 9 8 8 5 9 11 11 8 10 11 11 11 11 11 14 14 13 12 13 14 15 14 15 15 15 16 15 13 11 13 13 11 11 11 10 7 7 9 8 8 8 9 10 10 10 11 10 11 10 11 10 9 9 8 7 7 8 9 10 8 8 9
5 6 6 7 3 5 7 6 7 8 12 6 2 8 2 16 22 4 5 6 7 7 8 10 10 12 13 10 9 7 5 6 7 8 8 7 8 10 8 11 8 9 11 12 12 11 11 11 13 14 16 14 13 12 14 15 14 15 15 15 15 13 13 14 13 12 11 11 10 9 8 10 8 8 10 10 10 10 10 10 10 10 10 10 10 8 9 8 8 8 9 9 10 10 10 10 10
11 11 10 9 7 6 7 5 2 3 4 15 3 3 6 7 14 18 22 17 15 14 14 12 13 16 12 10 7 8 9 7 8 8 8 8 9 9 8 8 9 9 10 11 11 11 10 10 12 14 17 14 13 13 15 15 16 16 15 15 14 12 13 13 13 12 12 11 10 11 11 11 10 12 10 11 9 8 9 10 10 10 10 8 9 10 9 8 9 9 9 10 11 10 9 10 11
12 5 9 8 8 3 6 5 7 10 13 1 1 6 5 3 7 1 4 6 9 9 5 7 10 9 13 11 9 10 11 11 10 9 10 11 11 9 9 9 8 9 10 10 9 10 10 10 12 14 14 12 13 14 13 15 15 16 14 14 14 11 12 12 12 12 11 11 10 10 11 10 11 10 10 8 7 9 9 9 9 9 9 9 9 9 9 8 9 8 9 10 9 8 9 10 10
7 5 4 4 9 2 5 1 2 4 6 5 2 5 5 10 3 6 6 5 7 6 8 8 14 14 12 12 13 14 12 12 10 10 11 11 11 10 10 8 9 9 10 8 9 10 10 12 12 14 16 14 13 14 15 16 16 14 14 14 15 13 11 11 10 10 10 10 11 11 11 10 10 9 7 7 8 9 9 9 9 10 9 9 9 10 9 9 8 9 9 9 10 7 9 12 11
7 9 10 15 5 5 4 2 0 1 2 8 3 3 7 9 18 18 17 9 10 8 10 9 13 15 13 11 14 12 11 9 10 10 11 11 8 9 10 10 9 8 7 10 12 12 13 13 12 13 13 11 13 15 15 13 13 12 13 13 12 12 13 14 14 14 13 11 10 11 10 10 9 9 8 8 8 9 9 9 9 10 10 10 10 10 10 10 9 9 10 10 11 9 9 11 11
6 9 10 4 5 4 5 5 1 2 6 5 3 11 12 1 15 3 4 16 17 11 15 15 14 12 10 12 12 12 10 12 8 8 9 9 8 9 9 8 9 9 10 10 12 9 9 10 11 13 12 13 13 13 13 13 13 13 13 13 14 14 14 15 14 13 11 9 10 10 9 9 11 9 7 7 8 9 9 9 9 9 9 10 11 10 10 10 10 10 11 11 11 10 10 9 10
3 4 4 8 2 7 3 2 9 1 5 4 5 10 12 8 16 6 2 5 9 11 16 14 14 13 14 13 13 10 10 10 10 10 9 9 10 10 9 10 10 8 8 8 7 5 6 7 9 11 13 14 13 12 12 12 12 11 11 13 13 13 12 12 12 11 9 10 12 11 11 12 8 7 7 7 8 8 8 8 9 9 9 10 10 11 10 10 10 10 10 9 9 10 10 10 9
3 1 6 1 3 4 8 10 1 2 7 1 10 5 9 9 12 20 16 6 8 10 11 15 18 17 16 15 13 10 10 9 9 9 9 9 9 9 10 10 10 9 8 7 6 5 8 9 8 9 9 7 7 9 10 10 11 11 11 10 10 12 12 12 12 11 11 12 13 11 11 10 10 5 7 7 8 8 8 8 8 9 9 9 10 10 10 10 9 10 9 9 9 10 11 12 9
8 5 4 2 3 1 2 1 6 5 8 8 4 13 6 12 4 5 10 11 11 12 15 14 14 16 16 13 9 7 7 8 9 8 9 9 8 8 8 7 7 5 5 5 6 8 8 5 8 9 10 9 9 11 10 11 10 11 11 12 12 12 13 12 11 10 11 12 11 10 10 9 5 8 7 7 8 9 8 9 9 9 10 10 10 10 10 10 10 10 9 9 9 10 11 10 10
15 14 13 15 12 5 7 7 2 1 2 5 6 17 11 8 5 9 13 11 13 15 15 15 15 15 15 11 8 7 8 9 10 11 8 9 8 8 6 6 4 4 6 6 6 5 6 8 9 8 7 8 10 10 10 10 9 9 11 12 11 9 10 9 10 10 11 11 10 10 9 7 9 9 7 8 9 9 8 9 9 10 10 11 11 10 9 9 10 10 10 9 9 10 10 11 10
Wind_Direction
322 344 350 84 67 82 55 360 147 324 62 330 10 27 191 3 215 45 209 347 30 271 218 50 92 78 171 213 179 170 201 127 202 125 216 230 212 168 170 163 145 150 147 142 140 136 145 147 136 135 131 118 113 110 110 110 102 101 108 102 98 107 108 96 89 88 85 85 97 103 105 105 103 104 103 101 96 93 90 89 88 87 85 84 84 84 85 85 84 81 79 79 78 78 80 84 85
312 338 47 49 19 34 302 119 94 355 37 63 229 99 242 291 54 221 190 187 210 94 67 113 86 89 63 73 106 140 57 329 170 121 187 229 136 156 170 157 155 152 151 143 135 124 133 146 140 143 134 127 122 120 113 107 104 97 96 95 106 108 108 101 97 90 93 97 102 103 104 107 109 108 108 106 103 97 93 89 87 87 87 91 90 88 91 90 85 83 82 82 82 82 81 77 78
335 4 43 30 34 69 93 34 273 45 96 133 272 204 337 145 215 226 216 211 179 150 104 69 89 61 13 349 23 37 208 103 80 95 108 158 146 170 161 152 151 150 151 140 137 132 130 144 150 146 137 132 128 125 115 113 112 116 113 110 113 125 124 108 108 111 108 106 106 106 109 109 112 111 113 110 106 103 98 96 96 94 94 92 91 96 93 91 92 88 84 82 83 82 81 80 82
84 36 81 49 301 34 52 26 87 121 122 204 314 277 172 185 236 218 252 244 179 103 347 357 61 268 115 48 159 119 19 7 186 151 143 173 183 149 151 149 145 148 142 139 138 139 138 150 164 146 140 136 133 131 124 118 117 112 107 110 109 95 109 112 114 115 114 111 111 113 120 116 115 115 114 114 111 109 105 98 88 85 85 86 92 91 91 88 85 84 82 83 83 83 80 82 82
53 357 69 102 101 356 100 110 133 102 131 203 151 273 256 212 184 218 253 276 287 211 358 179 79 341 241 124 217 116 236 200 114 153 132 116 158 152 146 145 149 149 150 139 140 143 144 147 163 145 144 142 139 131 128 128 122 119 116 117 120 116 118 120 118 113 112 113 113 113 112 110 109 116 116 110 114 107 101 96 95 93 92 91 91 96 95 92 87 85 85 83 81 80 80 81 82
54 47 11 72 57 163 55 61 30 8 215 157 72 234 225 210 169 197 242 327 291 226 205 123 170 210 10 301 179 119 189 72 178 205 156 201 157 151 149 143 149 151 150 143 149 149 155 153 149 150 145 147 139 138 134 130 125 123 126 127 124 122 123 125 116 117 123 122 116 111 109 105 105 107 110 107 106 109 105 102 101 101 99 97 98 99 99 96 94 91 87 84 83 77 77 78 79
358 35 0 24 31 51 156 128 234 198 282 168 210 233 201 190 205 116 295 16 289 53 154 226 105 104 62 299 10 235 201 191 107 211 159 158 147 150 145 147 147 152 153 154 155 154 159 151 152 149 151 150 147 144 135 131 130 132 142 136 131 132 132 126 130 127 121 118 119 115 112 109 105 106 111 114 109 109 106 103 101 97 93 95 93 94 94 93 95 92 89 86 83 78 73 73 76
68 84 330 91 301 43 50 153 251 166 336 177 218 234 206 182 148 136 189 126 228 155 1 159 1 106 254 70 184 260 346 195 224 97 131 139 146 148 150 149 149 155 158 157 159 160 158 154 151 151 156 158 157 144 141 136 137 146 141 136 137 141 137 132 138 121 117 113 108 112 110 107 99 94 103 111 112 110 109 105 103 102 101 98 99 92 88 92 91 90 89 82 77 76 74 72 72
3 85 225 67 34 38 52 23 265 248 288 274 283 217 225 164 145 133 179 242 82 272 187 255 303 61 231 58 216 265 303 314 235 158 139 144 152 153 155 155 155 157 157 158 155 168 158 162 151 155 160 161 158 148 145 142 142 148 141 145 143 144 143 133 127 127 119 117 115 112 108 99 102 101 100 105 111 111 109 107 103 99 93 91 90 88 83 83 85 86 83 76 73 70 68 68 71
45 39 306 118 141 307 13 301 34 174 241 259 250 214 159 165 127 32 176 100 176 138 240 291 151 97 99 174 305 338 78 335 116 123 146 152 154 155 159 159 160 158 158 160 158 161 165 165 157 157 159 157 157 153 149 146 149 152 157 157 159 143 137 135 130 121 120 115 111 108 100 101 103 107 108 111 116 112 107 105 100 98 93 88 86 85 82 79 77 80 77 72 68 65 64 66 69
28 12 138 72 19 67 160 277 263 311 275 313 297 238 207 120 112 114 149 207 114 151 284 261 18 137 79 267 228 254 307 178 149 161 159 155 153 159 150 153 155 160 162 164 159 161 170 162 165 160 159 159 157 155 147 150 151 153 161 171 147 140 143 135 129 117 118 116 115 110 108 108 104 111 111 113 111 110 109 106 105 101 98 92 88 87 81 73 71 72 68 65 62 61 59 60 63
324 26 8 103 205 158 231 166 285 279 298 338 184 265 191 123 102 123 227 149 209 187 184 152 231 140 64 332 285 290 321 156 210 160 155 148 158 153 145 146 159 162 164 163 153 164 163 164 162 168 163 160 152 146 149 152 150 153 149 148 133 129 124 129 131 119 124 142 130 125 118 120 115 112 114 109 103 110 114 109 108 105 102 101 95 87 75 70 66 65 61 58 56 56 58 57 58
114 88 82 100 229 201 159 100 271 303 340 277 175 37 125 112 190 200 191 114 53 132 281 211 122 86 192 185 262 314 294 222 189 160 153 156 151 137 134 149 164 165 166 162 161 167 159 161 165 161 166 160 149 149 151 154 148 135 131 129 130 133 137 136 144 135 134 133 127 87 72 89 100 113 113 121 124 122 118 115 114 111 108 101 98 96 86 71 63 60 59 54 50 49 52 49 43
119 178 129 176 53 112 143 213 329 152 271 246 276 355 212 141 242 161 132 141 225 171 257 205 143 138 125 350 307 298 244 214 157 155 146 140 132 135 143 151 157 167 171 162 168 171 166 156 160 155 153 153 145 142 149 144 137 136 135 126 134 141 150 143 140 129 108 84 78 77 68 61 55 50 65 77 95 88 90 111 121 125 123 116 102 90 81 72 61 61 57 53 47 46 42 36 29
129 170 82 118 78 69 225 106 215 155 246 200 176 135 166 273 115 143 162 156 240 208 344 121 177 118 246 148 276 220 207 182 146 151 135 127 133 144 149 154 162 163 167 172 177 182 169 151 157 151 150 147 139 138 145 144 141 138 135 136 140 153 151 134 115 103 101 94 88 86 82 72 68 52 50 54 60 71 70 64 70 83 101 95 94 98 95 77 69 66 59 52 45 42 30 21 14
143 87 72 120 187 165 256 137 44 99 255 195 308 257 128 326 177 125 235 159 239 75 105 195 66 225 182 162 223 247 167 137 131 131 129 130 136 136 146 158 171 175 172 185 185 192 163 156 158 150 149 151 144 145 147 149 145 143 143 141 137 133 126 116 108 103 101 99 98 98 98 91 72 64 53 48 47 53 53 63 81 91 100 94 103 107 90 77 72 64 58 44 39 45 28 18 13
72 76 76 55 213 161 241 158 151 217 244 271 284 220 162 240 237 264 100 145 138 225 343 195 203 25 188 208 242 279 139 121 118 125 132 138 148 154 154 163 166 180 186 194 188 192 170 162 164 150 156 152 146 148 148 150 153 146 147 143 137 134 128 118 110 107 102 101 105 101 93 92 87 82 58 52 47 47 46 37 53 75 82 75 83 86 70 63 60 49 42 33 30 35 28 21 17
65 126 116 200 207 174 197 173 189 174 118 255 249 214 118 158 145 220 106 40 74 329 303 297 298 241 215 260 296 118 137 130 141 141 158 154 166 168 180 179 176 193 195 196 199 200 170 170 169 157 152 154 147 145 146 148 153 146 147 145 139 137 129 123 122 125 120 112 102 99 85 88 78 73 83 77 63 60 42 42 42 59 64 44 23 11 34 31 24 37 32 28 36 33 26 26 6
111 105 119 220 191 242 162 192 183 130 271 195 215 275 168 199 149 242 124 271 44 233 278 3 317 294 314 344 111 127 140 135 150 157 161 168 180 179 186 183 199 192 203 199 192 204 179 176 171 158 160 158 147 147 148 148 150 144 145 143 138 137 138 135 136 129 132 130 125 116 98 91 99 108 108 121 103 61 53 42 44 55 51 35 1 342 338 347 353 9 24 18 26 24 39 48 2
214 127 205 236 208 251 242 180 195 192 138 145 181 210 165 235 157 118 194 196 50 206 223 287 271 256 242 307 160 151 152 153 166 164 173 180 187 183 187 195 198 204 203 197 189 196 183 179 176 163 164 164 155 157 152 155 155 151 148 147 143 143 144 140 144 137 147 147 143 140 136 140 140 134 165 171 132 127 58 34 29 21 36 23 343 327 317 330 340 342 3 11 28 32 47 39 350
243 115 198 226 189 189 231 192 216 201 157 163 141 125 150 253 210 153 167 118 258 264 234 196 218 223 216 184 181 171 166 168 182 185 182 187 192 194 195 192 194 193 194 182 190 191 186 177 176 167 167 170 167 163 162 165 159 150 158 158 157 154 145 152 144 144 154 157 152 151 152 152 156 155 173 179 151 173 197 221 245 234 241 238 292 273 323 323 351 354 343 4 15 22 5 35 24
108 212 189 180 107 223 252 197 146 141 242 114 140 132 206 94 73 128 148 176 231 213 242 222 238 223 165 175 188 179 182 182 190 193 198 191 191 197 199 202 192 185 174 192 199 197 190 180 177 171 173 178 175 171 172 166 162 166 160 166 168 167 156 159 158 156 157 164 162 153 152 158 164 170 186 194 192 196 203 212 220 223 222 224 209 236 279 334 328 328 325 340 346 15 344 306 241
205 309 259 219 202 175 326 170 177 126 133 154 146 209 87 141 201 193 173 197 231 217 201 211 230 216 208 136 157 181 190 195 196 203 200 202 204 202 199 196 190 193 189 196 188 194 191 179 176 169 181 177 179 173 177 172 177 172 168 170 173 174 167 166 174 171 171 169 165 162 155 164 164 171 188 196 205 200 206 206 214 217 220 218 217 218 230 245 297 306 328 320 325 338 316 282 256
120 230 302 280 171 196 192 177 117 181 139 212 207 58 165 138 208 145 187 241 238 236 212 231 245 160 145 158 181 185 192 195 204 207 201 203 200 202 195 193 200 192 188 195 193 191 191 186 179 175 181 179 177 173 177 184 181 173 176 172 185 184 181 184 180 184 181 178 172 177 170 159 165 174 189 195 204 199 208 206 204 210 213 217 213 202 255 261 236 260 296 326 331 322 314 317 292
201 259 209 253 138 246 277 153 109 154 200 348 108 127 233 181 201 115 244 242 250 265 20 135 132 134 163 189 191 200 201 210 220 220 226 233 224 223 219 212 189 181 199 198 195 195 198 189 182 184 182 184 179 172 183 179 186 187 183 185 189 185 194 189 186 182 189 186 185 178 174 169 171 178 184 193 183 203 205 203 197 211 212 213 199 227 212 246 268 260 292 300 317 299 300 292 303
193 219 144 345 253 323 315 114 158 23 299 82 91 262 284 255 279 243 238 260 237 216 89 111 125 149 192 205 204 200 203 209 213 212 217 210 208 206 220 208 194 200 203 195 195 202 197 191 190 189 187 186 180 178 188 188 188 189 193 192 196 187 200 197 193 194 197 188 192 188 184 179 183 180 188 189 177 201 199 200 199 203 207 191 189 223 207 202 241 282 292 284 295 287 282 272 327
166 162 174 165 281 349 21 195 282 344 231 175 188 270 271 5 103 273 273 241 6 148 80 127 152 191 207 214 215 219 212 215 209 209 202 210 216 212 216 206 209 211 187 202 200 200 194 193 197 193 190 184 180 186 187 192 191 200 196 196 200 197 196 196 200 200 202 201 197 193 192 188 180 187 190 184 196 200 194 194 212 198 207 199 189 226 180 205 206 226 241 249 257 266 262 292 300
104 148 86 287 319 345 268 50 264 342 271 158 160 253 283 284 107 222 236 327 135 196 239 211 202 212 213 217 216 218 224 232 216 184 215 204 214 209 209 205 212 202 199 206 200 192 194 199 197 195 193 185 186 192 188 194 197 198 197 200 207 202 198 201 204 207 205 202 198 200 199 198 190 193 193 191 195 200 204 203 217 194 223 205 191 214 211 207 211 244 255 251 247 238 269 307 318
154 153 253 291 350 288 267 212 243 151 256 146 149 330 284 236 231 209 236 200 146 181 218 228 232 237 231 229 228 222 225 226 203 214 223 219 217 209 216 210 201 202 212 203 193 185 198 197 198 198 195 188 192 196 195 199 196 197 198 202 201 198 201 201 207 209 208 200 195 198 202 200 201 201 204 201 199 203 203 204 213 218 224 209 194 206 207 193 221 265 282 155 168 135 39 291 305
143 57 144 308 14 300 246 122 45 143 243 157 152 267 226 240 245 217 239 249 245 278 255 246 242 246 247 234 228 234 236 226 217 223 227 223 215 212 223 214 204 202 201 195 180 200 198 196 197 195 196 196 197 199 197 198 200 201 201 202 201 199 203 203 208 208 206 200 193 195 199 203 204 208 199 205 197 202 203 205 213 222 225 216 193 168 199 194 216 222 247 203 244 239 249 246 268
185 223 86 205 178 255 279 180 157 165 202 185 137 246 270 260 266 259 243 221 208 237 238 247 245 248 248 240 236 234 237 223 225 229 234 231 225 220 224 219 208 206 194 191 197 199 193 195 189 198 193 200 197 200 199 203 201 201 200 201 198 199 206 212 211 209 207 205 195 205 202 204 207 205 202 194 200 195 199 211 215 226 215 202 192 189 193 195 197 220 211 220 251 265 270 254 241
193 112 233 115 201 281 302 212 163 193 284 180 127 260 258 268 260 234 232 209 209 234 242 251 258 259 259 256 250 247 243 234 240 244 241 234 224 225 220 221 206 205 203 202 200 189 195 198 191 195 192 200 199 200 202 204 201 201 201 201 200 198 204 210 211 210 206 205 209 211 209 212 210 207 203 199 197 197 199 209 218 216 213 186 204 188 176 196 203 219 224 197 232 254 254 266 242
293 207 151 201 176 238 342 217 229 227 131 269 180 237 289 297 254 297 286 174 181 242 269 264 261 257 254 250 248 252 262 255 241 237 238 230 225 223 222 220 209 208 205 201 197 193 198 197 194 197 193 198 200 200 203 204 199 201 202 202 203 201 206 209 207 200 204 210 211 216 209 208 206 204 203 199 202 198 206 213 219 209 197 197 203 199 194 207 192 210 224 206 200 228 222 243 257
224 146 198 215 169 146 230 312 250 232 178 219 230 219 244 225 223 101 10 147 158 226 251 257 252 248 244 248 249 252 251 254 247 235 235 226 224 218 220 217 212 206 208 207 203 196 200 194 195 200 200 198 199 199 201 201 201 201 202 203 201 204 211 210 204 196 208 211 209 217 210 205 203 198 195 196 204 206 202 207 213 206 193 198 208 197 213 198 201 195 228 217 200 204 220 225 241
171 153 167 112 78 183 208 170 254 147 261 221 227 238 259 255 260 277 278 68 194 246 244 248 253 254 261 250 251 250 250 250 250 243 235 229 225 222 220 216 208 204 206 206 206 206 203 199 195 201 200 196 200 199 200 202 202 203 200 197 200 209 212 212 203 206 214 209 211 212 208 206 199 196 195 193 203 208 207 207 209 209 189 197 202 207 216 209 204 204 211 231 223 214 212 216 212
172 134 155 170 182 211 214 237 278 173 186 216 215 223 249 260 248 257 263 254 259 268 270 263 257 260 263 262 258 253 249 251 251 254 245 229 219 222 218 212 208 204 205 203 206 205 206 203 199 200 201 194 193 196 191 199 196 197 197 194 212 213 211 210 210 215 210 212 213 208 207 203 197 196 196 197 204 206 208 209 211 202 196 190 201 208 218 209 209 204 217 212 222 249 247 212 135
143 157 179 207 205 255 284 280 257 247 248 237 227 238 244 264 255 258 256 262 263 265 263 262 258 253 253 262 261 257 254 253 257 254 258 222 216 215 213 205 209 206 207 204 204 206 206 203 195 204 196 190 188 190 193 192 197 199 205 206 210 203 206 208 214 214 210 212 212 210 203 201 198 195 199 197 205 206 210 207 204 211 197 196 203 213 211 211 206 199 204 196 205 217 237 187 226
146 161 176 213 196 227 219 229 20 332 171 299 256 242 249 263 269 258 252 194 239 245 254 256 260 254 252 252 259 258 257 272 272 271 254 224 217 212 204 203 199 201 212 206 205 208 206 205 205 205 191 193 196 195 194 198 199 197 194 204 204 206 204 206 218 213 212 213 211 206 201 199 199 198 200 199 204 203 207 206 207 211 198 206 211 214 211 208 199 195 180 192 195 199 219 189 187
225 153 187 219 241 277 292 252 264 256 138 258 258 249 256 258 269 260 242 214 232 240 241 248 254 260 254 250 253 262 264 258 258 255 256 226 221 217 203 206 206 210 213 207 208 204 205 207 210 202 197 195 200 198 195 202 198 201 198 200 198 212 216 215 217 213 207 210 209 202 199 198 197 205 203 200 204 207 208 205 212 208 203 202 208 217 212 213 200 199 189 196 198 214 243 169 179
194 170 146 228 147 142 275 282 227 231 176 232 39 302 273 273 276 264 242 222 233 238 244 248 239 252 253 249 247 251 250 252 256 255 253 232 215 217 207 207 210 211 218 211 206 208 209 211 209 203 202 200 201 201 201 201 198 197 203 204 206 206 205 216 225 224 209 214 217 201 204 196 199 208 204 203 207 206 205 209 209 205 211 201 205 209 206 214 201 202 195 206 180 194 202 220 195
214 211 214 204 148 207 195 252 349 318 307 60 334 301 282 242 266 274 226 223 231 247 251 255 252 241 252 262 262 246 251 247 251 260 254 236 218 219 209 209 207 211 213 211 204 207 208 209 207 203 202 202 202 199 199 195 185 187 190 188 148 222 278 176 194 228 215 214 219 212 211 200 204 207 206 207 204 209 207 209 208 210 209 207 202 211 210 211 204 200 193 196 196 205 209 215 211
223 223 206 205 182 206 229 312 58 11 323 350 158 314 270 215 225 249 276 339 262 251 241 248 250 248 253 254 252 254 251 245 245 251 252 235 226 230 218 213 210 215 216 213 207 210 209 211 206 203 203 204 204 199 193 185 190 188 179 192 204 207 220 207 214 214 206 211 217 214 208 202 205 209 208 209 208 207 210 209 209 209 213 209 202 212 215 202 205 200 198 196 204 208 206 188 215
212 229 179 172 191 206 193 185 133 302 257 303 34 211 281 54 262 248 265 256 255 270 243 257 258 253 243 244 252 250 245 250 240 247 254 247 237 227 226 213 212 214 220 211 209 215 213 211 205 203 203 205 202 198 186 187 193 196 198 202 206 207 215 223 217 212 210 212 206 208 208 199 205 208 212 210 210 209 212 209 210 213 215 212 206 207 212 210 208 206 193 195 206 200 187 209 209
228 127 142 170 180 176 180 130 198 269 315 292 28 148 261 287 254 216 254 261 254 265 266 250 254 254 242 246 249 245 244 241 241 240 240 238 240 228 231 222 215 218 217 203 213 216 212 210 203 204 206 205 200 193 188 191 195 197 201 209 211 215 215 223 204 212 209 198 200 207 203 206 204 207 212 212 211 211 208 212 211 215 215 215 201 208 214 214 209 206 197 202 203 197 197 209 214
223 162 154 191 167 181 139 138 177 151 26 289 206 285 301 252 276 225 208 250 256 244 251 260 258 260 256 243 243 243 242 241 234 238 238 233 233 231 230 231 223 222 215 208 211 211 211 211 208 206 207 205 201 192 192 195 199 197 201 205 214 221 220 225 204 203 205 195 208 202 205 208 207 209 212 212 213 212 206 210 211 216 216 215 204 214 216 211 208 202 196 198 204 207 204 211 203
268 81 61 99 96 84 142 124 119 268 189 248 231 174 235 277 250 210 318 249 258 245 240 249 255 258 259 260 257 251 242 236 236 238 245 245 240 239 233 239 240 224 220 217 219 215 213 208 207 205 208 203 199 196 194 196 199 198 202 208 213 218 214 218 197 208 203 190 213 207 207 207 208 210 212 214 214 210 210 208 212 215 216 214 208 215 215 212 211 208 206 205 205 208 205 203 209
137 103 88 26 50 85 40 102 122 86 240 250 228 185 195 277 252 193 151 228 204 241 260 261 262 262 261 257 259 261 252 237 238 239 243 246 241 239 235 231 236 234 222 214 220 218 216 211 210 210 211 204 197 198 193 197 197 198 207 208 212 216 208 206 208 218 200 197 214 213 207 210 204 212 206 215 213 210 212 210 212 217 215 213 213 215 216 213 211 211 210 207 208 208 205 204 213
130 103 124 100 264 32 69 359 95 211 252 253 221 193 185 227 291 259 225 320 235 207 230 242 251 260 264 258 256 256 256 252 251 244 249 246 259 252 238 240 237 234 224 219 219 214 211 210 208 214 218 209 201 199 196 200 196 202 209 210 212 214 205 205 211 216 205 210 211 212 207 205 215 212 211 212 213 209 211 215 214 215 216 214 217 216 218 214 213 208 207 206 213 213 210 202 210
129 114 113 186 223 173 227 139 212 200 222 242 51 157 200 225 249 225 254 251 253 239 235 239 252 263 258 258 264 272 265 263 254 251 252 252 243 245 231 236 238 232 225 221 220 214 211 209 206 209 216 208 202 194 197 200 199 204 207 210 214 212 207 210 214 216 209 211 208 210 200 212 209 212 214 211 216 203 209 215 212 215 219 217 221 215 219 212 208 207 209 211 213 210 207 205 209
180 184 178 183 204 209 229 196 204 231 301 255 199 138 226 284 272 252 252 246 243 238 229 232 241 255 274 275 274 274 269 248 248 246 244 242 238 241 234 233 230 231 228 224 221 216 212 210 208 210 218 205 201 196 198 199 204 208 207 209 213 208 210 211 215 216 213 211 207 209 209 212 211 215 209 215 204 199 207 213 213 217 218 216 213 218 216 210 206 208 209 214 215 216 207 210 217
196 187 170 203 194 178 230 188 199 202 218 292 144 130 223 179 231 258 249 267 272 273 289 263 269 269 264 268 271 267 265 264 250 245 242 240 240 238 240 231 227 226 226 224 221 218 212 212 208 211 218 209 200 201 199 202 207 208 207 209 211 207 210 210 216 217 213 211 211 210 213 212 215 217 212 208 185 197 205 207 212 216 216 215 212 214 215 210 207 207 214 218 221 213 209 211 220
194 161 136 189 227 170 228 236 248 231 248 273 208 194 205 225 327 291 242 264 287 280 277 278 272 266 260 265 263 259 256 257 255 255 256 247 240 241 242 240 231 224 224 224 223 217 211 215 210 211 213 206 198 200 204 205 208 208 208 207 210 207 209 213 220 219 219 212 212 211 217 212 216 214 206 190 194 191 199 203 206 216 214 214 214 214 212 211 206 207 216 217 223 209 211 213 220
171 149 198 212 178 127 35 329 326 27 41 255 165 312 286 301 281 262 258 259 260 273 264 249 261 262 256 253 259 258 256 258 255 244 249 253 248 244 237 234 233 229 222 219 220 212 211 211 209 214 216 208 202 204 207 206 209 209 210 211 210 207 209 211 216 216 214 212 213 216 217 217 215 210 205 191 192 192 197 198 206 211 212 214 216 215 214 213 209 211 217 219 222 213 212 217 218
101 199 207 68 58 102 171 227 22 232 220 252 196 238 254 147 275 335 243 220 228 226 247 243 239 254 267 255 254 254 253 254 258 260 257 255 249 245 241 242 239 227 219 224 225 219 216 214 211 212 212 210 208 204 205 205 206 208 209 210 211 208 210 215 217 219 212 208 216 219 218 219 217 210 198 191 187 193 198 196 204 208 209 212 216 216 216 216 213 216 218 220 220 214 216 219 219
193 209 110 147 108 224 169 194 228 227 219 248 259 239 254 222 252 259 273 230 232 230 244 262 266 263 260 259 255 256 259 269 267 260 261 259 248 242 234 233 236 239 238 232 236 217 219 220 217 213 215 211 206 204 206 210 207 208 209 210 209 211 214 217 219 218 208 211 217 217 218 223 219 201 193 187 187 196 195 198 203 210 209 212 214 216 215 216 213 218 217 220 217 216 218 222 220
224 337 188 170 146 228 162 202 250 145 255 14 259 183 247 219 228 245 245 223 217 226 245 249 251 251 251 255 250 242 246 250 255 258 256 255 254 244 233 232 237 233 233 235 230 220 218 218 209 218 224 214 204 207 206 211 210 208 212 210 212 212 213 215 215 209 210 214 219 216 219 222 218 190 199 191 193 199 195 197 203 210 215 215 214 216 215 214 211 215 215 216 215 213 219 222 223
203 216 186 166 207 310 83 286 188 186 228 234 300 279 246 248 211 230 237 217 203 211 227 237 245 253 251 255 265 264 253 261 263 256 261 261 259 258 254 250 252 261 253 244 222 217 222 210 216 215 211 209 205 208 203 211 204 210 212 211 211 209 213 214 215 209 211 216 220 216 217 219 196 209 197 190 200 202 200 203 207 210 216 217 216 217 215 214 214 217 215 214 214 214 219 223 222
190 190 200 189 176 167 203 241 108 77 197 225 205 252 268 262 203 187 221 219 201 222 222 236 246 251 263 260 246 246 257 254 251 254 247 260 264 260 265 272 264 256 250 233 231 233 228 216 217 213 213 214 208 209 205 209 204 207 212 216 215 211 213 211 213 213 213 217 219 215 213 204 208 214 192 196 203 203 203 204 209 215 218 220 220 219 215 214 216 217 218 213 215 214 218 224 220